User: anonymous   Login
Location: St. Louis
(38.6270°N, 90.1994°W)
Time: 22:48:24
(UTC-06:00)
Language:

AAUSAT CUBESAT 2 - Orbit

View from above orbital plane
View from above orbital plane
View from above satellite
View from above satellite

Ground track
Ground track

The orbit data is extracted from the following two-line orbital elements,

1 32788U 08021F   22027.51605945  .00002534  00000-0  22937-3 0  9997
2 32788  97.5223  18.0602 0009962 231.3736 128.6595 14.96216783747355
Epoch (UTC): 27 January 2022 12:23:07
Eccentricity: 0.0009962
inclination: 97.5223°
perigee height: 571 km
apogee height: 585 km
right ascension of ascending node: 18.0602°
argument of perigee: 231.3736°
revolutions per day: 14.96216783
mean anomaly at epoch: 128.6595°
orbit number at epoch: 74735

The dashed part of the orbit path shows where the satellite is in the earth's shadow,  

DLR